Location: Niverville
(49.6028°N, 97.0419°W)
Time: 17:15:09
(UTC-05:00)

Daily predictions for brighter satellites

Satellite Brightness Start Highest point End
(mag) Time Altitude Azimuth Time Altitude Azimuth Time Altitude Azimuth
Gbstr 26 Del rocket 3.5 18:59:34 10° W 19:04:10 69° N 19:09:54 10° E
BREEZE M DEB (TANK) 2.7 18:59:09 10° W 19:07:24 89° SSE 19:10:15 10° E
Meteor 1-16 Rocket 4.3 19:02:51 10° S 19:07:56 50° E 19:13:06 10° NNE
Meteor 2-15 4.5 19:02:19 10° N 19:08:26 84° ENE 19:14:33 10° S
Cosmos 1484 Rocket 3.5 19:07:00 10° S 19:10:39 56° W 19:14:21 10° NNW
Cosmos 1833 Rocket 4.0 19:05:38 10° WSW 19:10:54 40° NW 19:16:11 10° NNE
YAOGAN 1 2.6 19:06:55 10° SSE 19:11:15 86° ENE 19:15:37 10° NNW
GP-B 3.4 19:07:32 10° NNE 19:11:50 44° E 19:16:05 10° SSE
ALOS 2.7 19:08:27 10° SE 19:12:48 40° ENE 19:17:09 10° N
Cosmos 1703 3.8 19:09:48 10° N 19:13:29 35° ENE 19:17:06 10° SE
Abrixas rocket 3.5 19:13:01 10° SW 19:15:54 28° SSE 19:18:42 10° E
Landsat 4 3.6 19:12:25 10° NNE 19:16:10 86° ESE 19:19:54 10° SSW
FENGYUN 3A 3.9 19:12:25 10° SE 19:17:33 47° ENE 19:22:44 10° N
CZ-2C R/B 3.7 19:13:13 10° NNE 19:17:50 84° ESE 19:22:20 10° SSW
CZ-4 R/B 2.3 19:14:31 10° S 19:18:41 58° W 19:22:49 10° NNW
MOS 1 4.3 19:15:28 10° SSE 19:21:08 83° ENE 19:26:52 10° NNW
Cosmos 1953 4.2 19:18:16 10° SW 19:22:00 34° WNW 19:25:46 10° N
Cosmos 1400 Rocket 2.9 19:18:43 10° N 19:22:45 56° ENE 19:26:42 10° SSE
Meteor 2-14 Rocket 4.4 19:17:21 10° S 19:23:23 68° E 19:29:25 10° NNE
Cosmos 2219 Rocket 3.3 19:20:41 10° NNW 19:25:13 24° NE 19:29:16 12° E
Meteor 2-16 Rocket 4.5 19:19:53 10° S 19:25:52 61° E 19:31:55 10° NNE
Cosmos 1624 Rocket 4.3 19:22:06 10° NNW 19:27:18 72° WSW 19:32:30 10° SSE
Cosmos-2242 3.0 19:23:40 10° S 19:27:56 89° ESE 19:32:13 10° N
SKYMED 2 3.6 19:25:33 10° NNE 19:29:51 57° E 19:34:08 10° S
Thor Agena Rocket 4.4 19:25:50 10° NE 19:30:09 27° E 19:34:25 10° SSE
Meteor 1-28 Rocket 3.4 19:26:38 10° N 19:30:28 77° WNW 19:34:14 10° SSW
USA 234 3.7 19:28:01 11° E 19:34:03 51° N 19:40:21 10° WNW
ERS-2 4.0 19:30:55 10° SSW 19:34:21 36° W 19:37:49 10° NNW
SL-16 R/B 3.0 19:29:16 10° NW 19:34:48 55° WSW 19:40:19 10° S
Cosmos 2237 4.4 19:30:29 10° NNW 19:36:06 52° NE 19:41:41 10° SE
Cosmos 1743 Rocket 3.5 19:32:07 10° N 19:36:30 81° E 19:40:53 10° SSE
GRACE-2 4.3 19:35:25 10° SSE 19:37:47 33° E 19:40:11 10° NNE
Cosmos 1420 Rocket 4.3 19:32:43 10° NNW 19:37:53 47° ENE 19:43:00 10° SE
Cosmos 1680 Rocket 4.3 19:33:52 10° SW 19:39:03 55° WNW 19:44:13 10° NNE
Cosmos 2151 2.9 19:35:12 10° N 19:39:30 68° ENE 19:43:45 10° SSE
GRACE-1 4.2 19:37:12 10° SSE 19:39:37 36° E 19:42:04 10° NNE
Cosmos 1908 4.1 19:37:16 10° SSE 19:40:36 27° E 19:43:56 10° NNE
Iridium 4 Rocket 4.2 19:38:17 10° SSE 19:43:17 37° E 19:48:35 10° NNE
Cosmos 1842 Rocket 3.6 19:43:45 10° S 19:48:09 63° E 19:52:35 10° NNE
Envisat 4.2 19:46:16 17° E 19:48:29 23° ENE 19:52:24 10° N
H-2A R/B 3.2 19:44:52 10° SE 19:48:31 41° ENE 19:52:14 10° N
Resurs 01 Rocket 2.8 19:49:59 20° E 19:51:18 22° ENE 19:54:43 10° N
Cosmos 2237 Rocket 3.5 19:48:45 10° NNW 19:53:19 24° NE 19:55:40 18° ENE
FREGAT/IRIS 2.6 19:56:04 11° SSE 19:58:51 55° ENE 20:01:48 10° N
Cosmos 1500 Rocket 3.6 19:54:31 10° NNW 19:58:55 79° W 20:03:14 10° S
Cosmos 2221 2.9 19:55:43 10° SSE 19:59:42 38° E 20:03:45 10° NNE
Cosmos 2366 rocket 4.1 19:54:40 10° SSW 20:00:54 81° W 20:07:07 10° N
SL-16 R/B 3.9 19:57:30 10° N 20:00:54 16° NNE 20:02:44 14° NE
CZ-2D R/B 4.1 20:01:43 27° E 20:02:32 30° ENE 20:05:58 10° N
Cosmos 1315 Rocket 2.7 19:59:39 10° N 20:03:43 80° ENE 20:07:49 10° SSE
Cosmos 921 Rocket 3.0 20:01:48 10° NNW 20:06:20 85° ENE 20:10:45 10° SSE
Resurs 1-3 4.4 20:08:29 28° E 20:09:13 30° ENE 20:13:02 10° N
Cosmos 158 Rocket 4.5 20:05:53 10° SSE 20:10:25 34° ESE 20:15:05 10° NE
HJ-1C 3.5 20:10:01 29° SE 20:11:30 54° ENE 20:14:51 10° N
CSL-04 DEB 4.4 20:08:24 14° SSE 20:11:50 58° ENE 20:15:50 10° N
COSMOS 2428 2.7 20:06:32 10° NNW 20:12:13 65° ENE 20:16:20 19° SE
Cosmos 2058 3.7 20:09:44 10° NNW 20:13:51 54° W 20:17:55 10° S
DMSP B5D1-3 4.5 20:09:34 10° NNE 20:14:44 90° SE 20:19:52 10° SSW
BREEZE-M DEB (TANK) 3.2 20:13:51 10° SW 20:15:03 24° SSW 20:15:03 24° SSW
Cosmos 2333 Rocket 2.7 20:10:18 10° NNW 20:15:44 42° NE 20:18:02 29° E
Cosmos 1461 3.5 20:11:46 10° SW 20:15:47 55° NW 20:19:40 12° NNE
COSMO-SKYMED 1 3.5 20:13:43 10° N 20:17:56 49° WNW 20:22:07 10° SW
RESURS DK-1 3.0 20:14:48 10° NW 20:18:52 55° WSW 20:22:54 10° SSE
Cosmos 1626 4.0 20:15:37 10° NNW 20:18:59 32° W 20:22:21 10° SSW
Cosmos 2360 Rocket 2.8 20:13:31 10° NW 20:19:06 59° WSW 20:24:38 10° S
Cosmos 1833 4.1 20:17:27 10° SSW 20:23:08 76° ESE 20:28:47 10° NNE
Cosmos 2098 Rocket 3.4 20:19:22 10° SSE 20:23:34 51° E 20:28:57 10° NNE
Cosmos 2084 4.0 20:20:31 10° NNW 20:23:59 33° NE 20:24:10 33° NE
FengYun 1-2 T 4.2 20:20:13 10° SSE 20:25:43 84° WSW 20:31:16 10° NNW
Meteor 2-1 Rocket 4.4 20:20:48 10° SSW 20:26:36 81° WNW 20:32:33 10° N
Cosmos 2219 3.9 20:23:14 10° SSE 20:27:41 32° ESE 20:27:41 32° ESE
Cosmos 468 4.5 20:23:13 10° S 20:28:18 56° ESE 20:33:27 10° NNE
MOS 1-B Rocket 3.9 20:25:31 20° SE 20:29:29 61° ENE 20:35:30 10° N
NOSS 0 Rocket 4.2 20:24:19 10° NNW 20:30:21 50° NE 20:32:33 35° ESE
Lacrosse 5 rocket 2.5 20:27:24 10° W 20:31:33 38° NNW 20:33:24 25° NNE
Cosmos 1452 Rocket 4.3 20:27:33 10° NNW 20:32:39 52° WSW 20:37:44 10° S
SJ-6B 2.7 20:30:52 19° S 20:33:27 78° WSW 20:37:13 10° NNW
SL-8 R/B 4.4 20:29:47 10° SW 20:34:12 36° SSE 20:34:26 36° SE
Sich 1 3.0 20:30:15 10° N 20:34:33 57° ENE 20:35:07 52° ESE
Cosmos 1000 Rocket 4.5 20:29:12 10° N 20:35:30 85° W 20:41:42 10° S
Cosmos 1805 Rocket 3.4 20:32:37 10° N 20:37:01 88° E 20:39:44 23° S
H-2A R/B 4.2 20:39:41 11° NE 20:39:41 11° NE 20:40:32 10° NNE
Cosmos 1821 Rocket 3.9 20:32:23 10° S 20:38:29 70° E 20:44:43 10° NNE
USA 267 3.5 20:37:01 34° E 20:39:07 44° SE 20:45:18 10° SSW
ATLAS 5 CENTAUR R/B 4.0 20:38:23 10° NW 20:42:09 19° N 20:45:03 14° NE
Cosmos 1666 Rocket 3.4 20:41:03 10° N 20:45:26 71° E 20:45:45 67° ESE
Atlas Centaur 2 4.5 20:45:02 10° S 20:46:05 10° S 20:47:10 10° S
Cosmos 2239 Rocket 4.3 20:41:21 10° S 20:47:29 81° E 20:53:40 10° N
Cosmos 1934 Rocket 3.9 20:41:32 10° S 20:47:48 64° E 20:54:07 10° NNE
ALOS 4.3 20:46:20 10° SSW 20:50:21 28° W 20:54:23 10° NW
Gbstr 26 Del rocket 3.7 20:46:16 10° WNW 20:51:23 75° SSW 20:53:04 48° SE
Abrixas rocket 3.4 20:48:58 10° WSW 20:51:14 39° WSW 20:51:14 39° WSW
Spot 2 Rocket 3.4 20:51:35 56° SE 20:52:29 69° ENE 20:57:32 10° N
Aureole 2 Rocket 3.0 20:49:24 10° NNW 20:52:31 59° N 20:52:31 59° N
Cosmos 1633 Rocket 3.0 20:51:09 10° N 20:55:16 71° NE 20:55:16 71° NE
Cosmos 1110 Rocket 3.9 20:50:20 10° NNW 20:55:39 64° ENE 20:56:06 61° E
CZ-4C R/B 3.6 20:55:43 10° S 20:57:35 21° S 20:57:35 21° S
Cosmos 2123 Rocket 3.9 20:55:28 10° N 21:01:44 88° ENE 21:05:32 26° S
Thor Agena Rocket 4.4 21:04:45 10° N 21:09:42 49° WNW 21:14:34 10° SW
Cosmos 2219 Rocket 2.2 21:04:13 10° NNW 21:09:49 79° WSW 21:11:01 56° S
BREEZE-M DEB (TANK) 3.8 20:53:45 10° WNW 21:10:24 62° SSW 21:11:54 47° SSE
Cosmos 1605 Rocket 3.8 21:12:13 66° ESE 21:12:31 67° E 21:18:34 10° NNE
USA 234 3.1 21:15:23 59° ESE 21:16:47 87° NE 21:23:24 10° WNW
Geosat 4.1 21:18:48 68° N 21:18:48 68° N 21:23:21 10° NNW
Cosmos 1048 Rocket 3.9 21:13:16 10° SSW 21:18:25 80° WNW 21:19:09 65° N
Cosmos 967 Rocket 4.5 21:19:37 10° NW 21:26:04 67° NE 21:26:09 67° NE
Envisat 3.3 21:26:29 57° SW 21:27:06 62° WSW 21:32:10 10° NNW
Resurs 01 Rocket 2.4 21:27:35 49° W 21:27:35 49° W 21:31:48 10° NNW
Meteor 2-3 Rocket 3.9 21:23:16 10° N 21:28:12 62° NNE 21:28:12 62° NNE
Cosmos 2237 Rocket 2.3 21:32:22 10° NNW 21:37:30 72° NW 21:37:30 72° NW
Cosmos 1447 Rocket 4.4 21:35:56 10° N 21:42:19 83° W 21:42:22 83° WSW
SL-16 R/B 3.1 21:40:47 10° NNW 21:44:37 39° N 21:44:37 39° N
Cosmos 2333 Rocket 3.2 21:54:41 10° NW 22:00:01 41° WSW 22:00:04 41° WSW
Cosmos 1980 4.4 21:55:16 10° NW 21:59:51 49° WNW 21:59:51 49° WNW
Lacrosse 5 rocket 4.1 22:07:48 10° WNW 22:09:05 17° NW 22:09:05 17° NW
H-2A R/B 4.1 22:20:20 21° N 22:20:20 21° N 22:22:04 10° N
USA 267 3.9 22:24:25 48° W 22:24:25 48° W 22:28:58 10° WSW
CZ-3A R/B 4.0 22:10:33 10° WNW 22:27:01 68° SW 22:27:05 68° SW
ATLAS 5 CENTAUR R/B 4.1 22:23:51 10° NW 22:26:35 23° N 22:26:35 23° N
